Time,TemperatureF,DewpointF,PressureIn,WindDirection,WindDirectionDegrees,WindSpeedMPH,WindSpeedGustMPH,Humidity,HourlyPrecipIn,Conditions,Clouds,dailyrainin,SoftwareType,DateUTC
2013-08-14 00:05:00,51.7,49.7,29.95,SSE,164,0.0,3.0,93,0.00,,,0.00,Wunderground v.1.15,2013-08-14 07:05:00,
2013-08-14 00:15:00,51.4,49.7,29.95,SSE,164,0.0,0.0,94,0.00,,,0.00,Wunderground v.1.15,2013-08-14 07:15:00,
2013-08-14 00:20:00,51.4,49.7,29.95,SSE,164,0.0,0.0,94,0.00,,,0.00,Wunderground v.1.15,2013-08-14 07:20:00,
2013-08-14 00:25:00,52.0,50.9,29.95,SSE,165,0.0,0.0,96,0.00,,,0.00,Wunderground v.1.15,2013-08-14 07:25:00,
2013-08-14 00:35:00,52.1,49.8,29.95,SSE,165,0.0,0.0,92,0.00,,,0.00,Wunderground v.1.15,2013-08-14 07:35:00,
2013-08-14 00:40:00,51.7,49.2,29.95,SSE,165,0.0,0.0,91,0.00,,,0.00,Wunderground v.1.15,2013-08-14 07:40:00,
2013-08-14 00:45:00,51.4,49.2,29.95,SSE,165,0.0,0.0,92,0.00,,,0.00,Wunderground v.1.15,2013-08-14 07:45:00,
2013-08-14 00:50:00,51.0,48.5,29.94,SSE,165,0.0,0.0,91,0.00,,,0.00,Wunderground v.1.15,2013-08-14 07:50:00,
2013-08-14 00:55:00,51.0,49.3,29.94,SSE,164,0.0,0.0,94,0.00,,,0.00,Wunderground v.1.15,2013-08-14 07:55:00,
2013-08-14 01:05:00,50.8,48.6,29.94,SSE,165,0.0,0.0,92,0.00,,,0.00,Wunderground v.1.15,2013-08-14 08:05:00,
2013-08-14 01:10:00,50.5,48.6,29.94,SSE,164,0.0,0.0,93,0.00,,,0.00,Wunderground v.1.15,2013-08-14 08:10:00,
2013-08-14 01:15:00,50.4,48.7,29.94,SSE,165,0.0,0.0,94,0.00,,,0.00,Wunderground v.1.15,2013-08-14 08:15:00,
2013-08-14 01:20:00,50.4,48.7,29.94,SSE,165,0.0,0.0,94,0.00,,,0.00,Wunderground v.1.15,2013-08-14 08:20:00,
2013-08-14 01:25:00,50.2,48.5,29.94,SSE,165,0.0,0.0,94,0.00,,,0.00,Wunderground v.1.15,2013-08-14 08:25:00,
2013-08-14 01:30:00,50.4,49.0,29.94,SSE,165,0.0,0.0,95,0.00,,,0.00,Wunderground v.1.15,2013-08-14 08:30:00,
2013-08-14 01:40:00,50.6,49.5,29.94,SSE,165,0.0,0.0,96,0.00,,,0.00,Wunderground v.1.15,2013-08-14 08:40:00,
2013-08-14 01:45:00,50.5,49.1,29.93,SSE,165,0.0,0.0,95,0.00,,,0.00,Wunderground v.1.15,2013-08-14 08:45:00,
2013-08-14 01:50:00,49.9,47.7,29.94,SSE,165,0.0,0.0,92,0.00,,,0.00,Wunderground v.1.15,2013-08-14 08:50:00,
2013-08-14 01:55:00,49.5,47.8,29.94,SSE,165,0.0,0.0,94,0.00,,,0.00,Wunderground v.1.15,2013-08-14 08:55:00,
2013-08-14 02:00:00,49.7,48.6,29.94,SSE,165,0.0,0.0,96,0.00,,,0.00,Wunderground v.1.15,2013-08-14 09:00:00,
2013-08-14 02:10:00,49.6,48.2,29.94,SSE,165,0.0,0.0,95,0.00,,,0.00,Wunderground v.1.15,2013-08-14 09:10:00,
2013-08-14 02:15:00,49.0,47.1,29.94,SSE,165,0.0,0.0,93,0.00,,,0.00,Wunderground v.1.15,2013-08-14 09:15:00,
2013-08-14 02:20:00,49.2,48.1,29.94,SSE,165,0.0,0.0,96,0.00,,,0.00,Wunderground v.1.15,2013-08-14 09:20:00,
2013-08-14 02:25:00,49.9,48.8,29.93,SSE,165,0.0,0.0,96,0.00,,,0.00,Wunderground v.1.15,2013-08-14 09:25:00,
2013-08-14 02:30:00,50.1,49.0,29.93,SSE,165,0.0,0.0,96,0.00,,,0.00,Wunderground v.1.15,2013-08-14 09:30:00,
2013-08-14 02:40:00,49.4,47.7,29.94,SSE,165,0.0,0.0,94,0.00,,,0.00,Wunderground v.1.15,2013-08-14 09:40:00,
2013-08-14 02:45:00,48.9,47.0,29.94,SSE,165,0.0,0.0,93,0.00,,,0.00,Wunderground v.1.15,2013-08-14 09:45:00,
2013-08-14 02:50:00,48.6,47.0,29.94,SSE,165,0.0,0.0,94,0.00,,,0.00,Wunderground v.1.15,2013-08-14 09:50:00,
2013-08-14 02:55:00,48.5,46.9,29.94,SSE,165,0.0,0.0,94,0.00,,,0.00,Wunderground v.1.15,2013-08-14 09:55:00,
2013-08-14 03:00:00,48.3,46.7,29.94,SSE,165,0.0,0.0,94,0.00,,,0.00,Wunderground v.1.15,2013-08-14 10:00:00,
2013-08-14 03:05:00,48.3,46.9,29.94,SSE,165,0.0,0.0,95,0.00,,,0.00,Wunderground v.1.15,2013-08-14 10:05:00,
2013-08-14 03:10:00,48.7,47.6,29.94,SSE,165,0.0,0.0,96,0.00,,,0.00,Wunderground v.1.15,2013-08-14 10:10:00,
2013-08-14 03:20:00,49.5,48.7,29.93,SSE,165,0.0,0.0,97,0.00,,,0.00,Wunderground v.1.15,2013-08-14 10:20:00,
2013-08-14 03:25:00,49.5,48.4,29.94,SSE,165,0.0,0.0,96,0.00,,,0.00,Wunderground v.1.15,2013-08-14 10:25:00,
2013-08-14 03:30:00,49.4,48.0,29.94,SSE,165,0.0,0.0,95,0.00,,,0.00,Wunderground v.1.15,2013-08-14 10:30:00,
2013-08-14 03:35:00,49.1,47.7,29.94,SSE,165,0.0,0.0,95,0.00,,,0.00,Wunderground v.1.15,2013-08-14 10:35:00,
2013-08-14 03:40:00,48.7,47.3,29.94,SSE,165,0.0,0.0,95,0.00,,,0.00,Wunderground v.1.15,2013-08-14 10:40:00,
2013-08-14 03:45:00,48.5,47.1,29.94,SSE,165,0.0,0.0,95,0.00,,,0.00,Wunderground v.1.15,2013-08-14 10:45:00,
2013-08-14 03:55:00,48.8,48.0,29.94,SSE,165,0.0,0.0,97,0.00,,,0.00,Wunderground v.1.15,2013-08-14 10:55:00,
2013-08-14 04:00:00,48.7,47.6,29.94,SSE,165,0.0,0.0,96,0.00,,,0.00,Wunderground v.1.15,2013-08-14 11:00:00,
2013-08-14 04:05:00,48.7,47.6,29.94,SSE,165,0.0,0.0,96,0.00,,,0.00,Wunderground v.1.15,2013-08-14 11:05:00,
2013-08-14 04:10:00,48.8,48.0,29.94,SSE,165,0.0,0.0,97,0.00,,,0.00,Wunderground v.1.15,2013-08-14 11:10:00,
2013-08-14 04:15:00,48.8,47.7,29.94,SSE,165,0.0,0.0,96,0.00,,,0.00,Wunderground v.1.15,2013-08-14 11:15:00,
2013-08-14 04:20:00,48.8,47.7,29.94,SSE,165,0.0,0.0,96,0.00,,,0.00,Wunderground v.1.15,2013-08-14 11:20:00,
2013-08-14 04:25:00,49.0,48.2,29.94,SSE,165,0.0,0.0,97,0.00,,,0.00,Wunderground v.1.15,2013-08-14 11:25:00,
2013-08-14 04:35:00,48.9,47.8,29.94,SSE,165,0.0,0.0,96,0.00,,,0.00,Wunderground v.1.15,2013-08-14 11:35:00,
2013-08-14 04:40:00,48.3,46.9,29.94,SSE,165,0.0,0.0,95,0.00,,,0.00,Wunderground v.1.15,2013-08-14 11:40:00,
2013-08-14 04:45:00,48.2,47.1,29.94,SSE,165,0.0,0.0,96,0.00,,,0.00,Wunderground v.1.15,2013-08-14 11:45:00,
2013-08-14 04:50:00,48.6,47.8,29.94,SSE,165,0.0,0.0,97,0.00,,,0.00,Wunderground v.1.15,2013-08-14 11:50:00,
2013-08-14 04:55:00,49.0,48.2,29.94,SSE,165,0.0,0.0,97,0.00,,,0.00,Wunderground v.1.15,2013-08-14 11:55:00,
2013-08-14 05:05:00,49.8,49.0,29.94,SSE,165,0.0,0.0,97,0.00,,,0.00,Wunderground v.1.15,2013-08-14 12:05:00,
2013-08-14 05:10:00,50.4,49.9,29.94,SSE,165,0.0,0.0,98,0.00,,,0.00,Wunderground v.1.15,2013-08-14 12:10:00,
2013-08-14 05:15:00,50.3,49.5,29.94,SSE,165,0.0,0.0,97,0.00,,,0.00,Wunderground v.1.15,2013-08-14 12:15:00,
2013-08-14 05:20:00,49.7,48.6,29.94,SSE,165,0.0,0.0,96,0.00,,,0.00,Wunderground v.1.15,2013-08-14 12:20:00,
2013-08-14 05:25:00,49.3,47.9,29.95,SSE,165,0.0,0.0,95,0.00,,,0.00,Wunderground v.1.15,2013-08-14 12:25:00,
2013-08-14 05:30:00,48.8,47.4,29.95,SSE,165,0.0,0.0,95,0.00,,,0.00,Wunderground v.1.15,2013-08-14 12:30:00,
2013-08-14 05:40:00,48.2,48.2,29.95,SSE,165,0.0,0.0,100,0.00,,,0.00,Wunderground v.1.15,2013-08-14 12:40:00,
2013-08-14 05:45:00,48.0,46.6,29.95,SSE,165,0.0,0.0,95,0.00,,,0.00,Wunderground v.1.15,2013-08-14 12:45:00,
2013-08-14 05:50:00,48.2,47.1,29.95,SSE,165,0.0,0.0,96,0.00,,,0.00,Wunderground v.1.15,2013-08-14 12:50:00,
2013-08-14 05:55:00,48.1,47.0,29.95,SSE,165,0.0,0.0,96,0.00,,,0.00,Wunderground v.1.15,2013-08-14 12:55:00,
2013-08-14 06:00:00,47.8,46.7,29.95,SSE,165,0.0,0.0,96,0.00,,,0.00,Wunderground v.1.15,2013-08-14 13:00:00,
2013-08-14 06:10:00,47.4,46.3,29.95,SSE,165,0.0,0.0,96,0.00,,,0.00,Wunderground v.1.15,2013-08-14 13:10:00,
2013-08-14 06:15:00,47.5,46.7,29.95,SSE,165,0.0,0.0,97,0.00,,,0.00,Wunderground v.1.15,2013-08-14 13:15:00,
2013-08-14 06:20:00,48.0,47.2,29.95,SSE,165,0.0,0.0,97,0.00,,,0.00,Wunderground v.1.15,2013-08-14 13:20:00,
2013-08-14 06:25:00,48.5,47.7,29.96,SSE,165,0.0,0.0,97,0.00,,,0.00,Wunderground v.1.15,2013-08-14 13:25:00,
2013-08-14 06:30:00,48.5,47.7,29.95,SSE,165,0.0,0.0,97,0.00,,,0.00,Wunderground v.1.15,2013-08-14 13:30:00,
2013-08-14 06:35:00,48.3,47.5,29.95,SSE,165,0.0,0.0,97,0.00,,,0.00,Wunderground v.1.15,2013-08-14 13:35:00,
2013-08-14 06:45:00,48.5,48.0,29.96,SSE,165,0.0,0.0,98,0.00,,,0.00,Wunderground v.1.15,2013-08-14 13:45:00,
2013-08-14 06:50:00,48.6,47.8,29.97,SE,134,0.0,0.0,97,0.00,,,0.00,Wunderground v.1.15,2013-08-14 13:50:00,
2013-08-14 06:55:00,48.8,48.3,29.97,SE,134,0.0,0.0,98,0.00,,,0.00,Wunderground v.1.15,2013-08-14 13:55:00,
2013-08-14 07:00:00,49.4,48.9,29.97,SE,134,0.0,0.0,98,0.00,,,0.00,Wunderground v.1.15,2013-08-14 14:00:00,
2013-08-14 07:05:00,49.8,49.3,29.97,SE,134,0.0,0.0,98,0.00,,,0.00,Wunderground v.1.15,2013-08-14 14:05:00,
2013-08-14 07:10:00,50.2,49.7,29.97,SE,134,0.0,0.0,98,0.00,,,0.00,Wunderground v.1.15,2013-08-14 14:10:00,
2013-08-14 07:20:00,50.8,50.5,29.97,SE,134,0.0,0.0,99,0.00,,,0.00,Wunderground v.1.15,2013-08-14 14:20:00,
2013-08-14 07:25:00,51.0,50.7,29.97,SE,134,0.0,0.0,99,0.00,,,0.00,Wunderground v.1.15,2013-08-14 14:25:00,
2013-08-14 07:30:00,51.3,50.8,29.97,SE,134,0.0,0.0,98,0.00,,,0.00,Wunderground v.1.15,2013-08-14 14:30:00,
2013-08-14 07:35:00,51.5,51.2,29.97,SE,134,0.0,0.0,99,0.00,,,0.00,Wunderground v.1.15,2013-08-14 14:35:00,
2013-08-14 07:40:00,51.7,51.4,29.97,SE,134,0.0,0.0,99,0.00,,,0.00,Wunderground v.1.15,2013-08-14 14:40:00,
2013-08-14 07:45:00,51.8,51.5,29.97,SE,134,0.0,0.0,99,0.00,,,0.00,Wunderground v.1.15,2013-08-14 14:45:00,
2013-08-14 07:55:00,52.2,51.9,29.97,SE,134,0.0,0.0,99,0.00,,,0.00,Wunderground v.1.15,2013-08-14 14:55:00,
2013-08-14 08:00:00,52.3,52.0,29.97,SE,134,0.0,0.0,99,0.00,,,0.00,Wunderground v.1.15,2013-08-14 15:00:00,
2013-08-14 08:05:00,52.4,51.9,29.98,SE,134,0.0,0.0,98,0.00,,,0.00,Wunderground v.1.15,2013-08-14 15:05:00,
2013-08-14 08:10:00,52.6,52.3,29.98,SE,134,0.0,0.0,99,0.00,,,0.00,Wunderground v.1.15,2013-08-14 15:10:00,
2013-08-14 08:20:00,52.8,52.5,29.97,SSE,163,0.0,0.0,99,0.00,,,0.00,Wunderground v.1.15,2013-08-14 15:20:00,
2013-08-14 08:25:00,52.9,52.4,29.98,SSE,163,0.0,0.0,98,0.00,,,0.00,Wunderground v.1.15,2013-08-14 15:25:00,
2013-08-14 08:30:00,53.2,52.9,29.98,SSE,163,0.0,0.0,99,0.00,,,0.00,Wunderground v.1.15,2013-08-14 15:30:00,
2013-08-14 08:35:00,53.5,53.2,29.97,SSE,161,0.0,0.0,99,0.00,,,0.00,Wunderground v.1.15,2013-08-14 15:35:00,
2013-08-14 08:40:00,53.7,53.4,29.97,SSE,161,0.0,0.0,99,0.00,,,0.00,Wunderground v.1.15,2013-08-14 15:40:00,
2013-08-14 08:50:00,54.5,53.9,29.98,SSE,161,0.0,0.0,98,0.00,,,0.00,Wunderground v.1.15,2013-08-14 15:50:00,
2013-08-14 08:55:00,55.4,54.8,29.98,SSE,163,0.0,0.0,98,0.00,,,0.00,Wunderground v.1.15,2013-08-14 15:55:00,
2013-08-14 09:00:00,56.2,55.1,29.98,ESE,114,0.0,0.0,96,0.00,,,0.00,Wunderground v.1.15,2013-08-14 16:00:00,
2013-08-14 09:05:00,56.9,55.5,29.97,SE,140,0.0,0.0,95,0.00,,,0.00,Wunderground v.1.15,2013-08-14 16:05:00,
2013-08-14 09:15:00,58.1,55.2,29.98,SE,139,0.0,1.0,90,0.00,,,0.00,Wunderground v.1.15,2013-08-14 16:15:00,
2013-08-14 09:25:00,59.6,55.4,29.98,SE,138,0.0,0.0,86,0.00,,,0.00,Wunderground v.1.15,2013-08-14 16:25:00,
2013-08-14 09:30:00,60.3,56.1,29.97,SE,138,0.0,0.0,86,0.00,,,0.00,Wunderground v.1.15,2013-08-14 16:30:00,
2013-08-14 09:35:00,60.9,56.0,29.97,SE,144,0.0,0.0,84,0.00,,,0.00,Wunderground v.1.15,2013-08-14 16:35:00,
2013-08-14 09:40:00,61.8,56.2,29.97,SE,145,0.0,0.0,82,0.00,,,0.00,Wunderground v.1.15,2013-08-14 16:40:00,
2013-08-14 09:45:00,62.0,56.4,29.97,SE,145,0.0,0.0,82,0.00,,,0.00,Wunderground v.1.15,2013-08-14 16:45:00,
2013-08-14 09:55:00,63.2,56.2,29.97,ESE,115,0.0,0.0,78,0.00,,,0.00,Wunderground v.1.15,2013-08-14 16:55:00,
2013-08-14 10:05:00,64.3,56.6,29.98,SE,134,0.0,1.0,76,0.00,,,0.00,Wunderground v.1.15,2013-08-14 17:05:00,
2013-08-14 10:10:00,64.8,56.3,29.97,SE,137,0.0,0.0,74,0.00,,,0.00,Wunderground v.1.15,2013-08-14 17:10:00,
2013-08-14 10:15:00,65.4,56.5,29.97,SSE,167,1.0,1.0,73,0.00,,,0.00,Wunderground v.1.15,2013-08-14 17:15:00,
2013-08-14 10:20:00,65.8,56.1,29.96,SSE,167,1.0,1.0,71,0.00,,,0.00,Wunderground v.1.15,2013-08-14 17:20:00,
2013-08-14 10:30:00,67.7,56.8,29.96,ESE,114,1.0,1.0,68,0.00,,,0.00,Wunderground v.1.15,2013-08-14 17:30:00,
2013-08-14 10:35:00,68.5,56.7,29.96,ESE,103,0.0,1.0,66,0.00,,,0.00,Wunderground v.1.15,2013-08-14 17:35:00,
2013-08-14 10:40:00,69.4,56.3,29.96,SE,144,0.0,5.0,63,0.00,,,0.00,Wunderground v.1.15,2013-08-14 17:40:00,
2013-08-14 10:45:00,69.9,56.7,29.96,South,190,1.0,5.0,63,0.00,,,0.00,Wunderground v.1.15,2013-08-14 17:45:00,
2013-08-14 10:50:00,70.9,55.9,29.96,SSW,194,2.0,2.0,59,0.00,,,0.00,Wunderground v.1.15,2013-08-14 17:50:00,
2013-08-14 11:00:00,72.1,55.5,29.96,South,180,1.0,2.0,56,0.00,,,0.00,Wunderground v.1.15,2013-08-14 18:00:00,
2013-08-14 11:05:00,72.2,56.1,29.96,SSE,167,2.0,6.0,57,0.00,,,0.00,Wunderground v.1.15,2013-08-14 18:05:00,
2013-08-14 11:15:00,72.6,55.5,29.96,SSE,159,3.0,4.0,55,0.00,,,0.00,Wunderground v.1.15,2013-08-14 18:15:00,
2013-08-14 11:25:00,73.5,55.8,29.96,SSE,165,2.0,5.0,54,0.00,,,0.00,Wunderground v.1.15,2013-08-14 18:25:00,
2013-08-14 11:40:00,74.8,57.0,29.95,South,188,2.0,7.0,54,0.00,,,0.00,Wunderground v.1.15,2013-08-14 18:40:00,
2013-08-14 11:50:00,74.5,56.8,29.96,South,178,4.0,4.0,54,0.00,,,0.00,Wunderground v.1.15,2013-08-14 18:50:00,
2013-08-14 11:55:00,74.2,56.5,29.96,South,177,5.0,5.0,54,0.00,,,0.00,Wunderground v.1.15,2013-08-14 18:55:00,
2013-08-14 12:05:00,74.4,56.7,29.96,SSE,168,5.0,7.0,54,0.00,,,0.00,Wunderground v.1.15,2013-08-14 19:05:00,
2013-08-14 12:20:00,73.3,55.6,29.96,South,180,7.0,7.0,54,0.00,,,0.00,Wunderground v.1.15,2013-08-14 19:20:00,
2013-08-14 12:35:00,73.0,55.9,29.95,SSE,167,5.0,10.0,55,0.00,,,0.00,Wunderground v.1.15,2013-08-14 19:35:00,
2013-08-14 12:40:00,72.7,56.1,29.95,SSE,167,5.0,8.0,56,0.00,,,0.00,Wunderground v.1.15,2013-08-14 19:40:00,
2013-08-14 12:45:00,72.5,56.4,29.95,SSE,163,6.0,8.0,57,0.00,,,0.00,Wunderground v.1.15,2013-08-14 19:45:00,
2013-08-14 13:05:00,74.6,56.9,29.95,South,170,7.0,10.0,54,0.00,,,0.00,Wunderground v.1.15,2013-08-14 20:05:00,
2013-08-14 13:10:00,75.3,55.9,29.94,SSE,161,6.0,6.0,51,0.00,,,0.00,Wunderground v.1.15,2013-08-14 20:10:00,
2013-08-14 13:15:00,75.6,55.6,29.94,SSW,194,7.0,7.0,50,0.00,,,0.00,Wunderground v.1.15,2013-08-14 20:15:00,
2013-08-14 13:40:00,76.3,55.7,29.94,South,190,8.0,9.0,49,0.00,,,0.00,Wunderground v.1.15,2013-08-14 20:40:00,
2013-08-14 13:50:00,76.4,56.4,29.93,South,182,9.0,11.0,50,0.00,,,0.00,Wunderground v.1.15,2013-08-14 20:50:00,
2013-08-14 13:55:00,76.3,55.7,29.93,SSW,204,9.0,12.0,49,0.00,,,0.00,Wunderground v.1.15,2013-08-14 20:55:00,
2013-08-14 14:00:00,76.1,56.1,29.93,South,180,9.0,12.0,50,0.00,,,0.00,Wunderground v.1.15,2013-08-14 21:00:00,
2013-08-14 14:10:00,76.9,55.7,29.93,South,189,10.0,13.0,48,0.00,,,0.00,Wunderground v.1.15,2013-08-14 21:10:00,
2013-08-14 14:15:00,77.3,56.1,29.93,South,188,10.0,13.0,48,0.00,,,0.00,Wunderground v.1.15,2013-08-14 21:15:00,
2013-08-14 14:20:00,77.4,56.2,29.93,SSW,212,10.0,11.0,48,0.00,,,0.00,Wunderground v.1.15,2013-08-14 21:20:00,
2013-08-14 14:25:00,77.6,56.9,29.93,SSE,160,11.0,11.0,49,0.00,,,0.00,Wunderground v.1.15,2013-08-14 21:25:00,
2013-08-14 14:35:00,77.2,57.1,29.92,SSW,197,13.0,16.0,50,0.00,,,0.00,Wunderground v.1.15,2013-08-14 21:35:00,
2013-08-14 14:40:00,78.3,57.0,29.92,SSW,211,13.0,13.0,48,0.00,,,0.00,Wunderground v.1.15,2013-08-14 21:40:00,
2013-08-14 14:45:00,78.7,56.8,29.92,SSW,206,12.0,13.0,47,0.00,,,0.00,Wunderground v.1.15,2013-08-14 21:45:00,
2013-08-14 14:50:00,78.2,56.9,29.92,SSW,203,12.0,14.0,48,0.00,,,0.00,Wunderground v.1.15,2013-08-14 21:50:00,
2013-08-14 15:05:00,77.6,57.5,29.91,SSW,194,12.0,13.0,50,0.00,,,0.00,Wunderground v.1.15,2013-08-14 22:05:00,
2013-08-14 15:10:00,77.5,57.4,29.91,South,174,12.0,12.0,50,0.00,,,0.00,Wunderground v.1.15,2013-08-14 22:10:00,
2013-08-14 15:15:00,77.8,57.1,29.91,SSW,210,13.0,13.0,49,0.00,,,0.00,Wunderground v.1.15,2013-08-14 22:15:00,
2013-08-14 15:25:00,77.8,57.1,29.91,South,190,13.0,13.0,49,0.00,,,0.00,Wunderground v.1.15,2013-08-14 22:25:00,
2013-08-14 15:35:00,77.8,57.7,29.90,SSW,200,11.0,16.0,50,0.00,,,0.00,Wunderground v.1.15,2013-08-14 22:35:00,
2013-08-14 15:40:00,77.6,58.0,29.90,South,169,10.0,13.0,51,0.00,,,0.00,Wunderground v.1.15,2013-08-14 22:40:00,
2013-08-14 15:45:00,76.7,58.3,29.91,SSW,203,11.0,13.0,53,0.00,,,0.00,Wunderground v.1.15,2013-08-14 22:45:00,
2013-08-14 15:50:00,76.2,58.9,29.91,SSW,213,12.0,17.0,55,0.00,,,0.00,Wunderground v.1.15,2013-08-14 22:50:00,
2013-08-14 16:00:00,75.1,59.3,29.91,South,190,11.0,11.0,58,0.00,,,0.00,Wunderground v.1.15,2013-08-14 23:00:00,
2013-08-14 16:10:00,74.3,59.0,29.90,SSE,165,12.0,15.0,59,0.00,,,0.00,Wunderground v.1.15,2013-08-14 23:10:00,
2013-08-14 16:20:00,74.6,59.3,29.90,SSE,168,11.0,12.0,59,0.00,,,0.00,Wunderground v.1.15,2013-08-14 23:20:00,
2013-08-14 16:25:00,74.6,59.3,29.90,South,170,11.0,12.0,59,0.00,,,0.00,Wunderground v.1.15,2013-08-14 23:25:00,
2013-08-14 16:30:00,74.3,59.5,29.90,SSW,206,11.0,11.0,60,0.00,,,0.00,Wunderground v.1.15,2013-08-14 23:30:00,
2013-08-14 16:40:00,74.2,60.3,29.89,SSW,194,8.0,8.0,62,0.00,,,0.00,Wunderground v.1.15,2013-08-14 23:40:00,
2013-08-14 16:45:00,74.6,59.8,29.89,SSW,200,9.0,9.0,60,0.00,,,0.00,Wunderground v.1.15,2013-08-14 23:45:00,
2013-08-14 16:50:00,74.3,59.5,29.89,SSW,213,12.0,12.0,60,0.00,,,0.00,Wunderground v.1.15,2013-08-14 23:50:00,
2013-08-14 17:00:00,74.9,59.1,29.89,SSW,209,14.0,14.0,58,0.00,,,0.00,Wunderground v.1.15,2013-08-15 00:00:00,
2013-08-14 17:05:00,75.1,58.8,29.89,SSW,192,13.0,14.0,57,0.00,,,0.00,Wunderground v.1.15,2013-08-15 00:05:00,
2013-08-14 17:10:00,75.3,59.0,29.89,SSW,205,13.0,13.0,57,0.00,,,0.00,Wunderground v.1.15,2013-08-15 00:10:00,
2013-08-14 17:20:00,74.8,60.0,29.88,South,180,11.0,11.0,60,0.00,,,0.00,Wunderground v.1.15,2013-08-15 00:20:00,
2013-08-14 17:25:00,74.2,60.3,29.88,SSW,207,13.0,13.0,62,0.00,,,0.00,Wunderground v.1.15,2013-08-15 00:25:00,
2013-08-14 17:30:00,73.9,60.5,29.88,South,188,14.0,14.0,63,0.00,,,0.00,Wunderground v.1.15,2013-08-15 00:30:00,
2013-08-14 17:40:00,72.8,60.3,29.89,SSW,199,12.0,13.0,65,0.00,,,0.00,Wunderground v.1.15,2013-08-15 00:40:00,
2013-08-14 17:45:00,72.3,60.3,29.88,SW,223,11.0,13.0,66,0.00,,,0.00,Wunderground v.1.15,2013-08-15 00:45:00,
2013-08-14 17:50:00,72.1,60.5,29.88,SSW,211,10.0,11.0,67,0.00,,,0.00,Wunderground v.1.15,2013-08-15 00:50:00,
2013-08-14 17:55:00,71.9,60.3,29.88,South,190,10.0,11.0,67,0.00,,,0.00,Wunderground v.1.15,2013-08-15 00:55:00,
2013-08-14 18:00:00,71.7,60.6,29.88,SSW,210,9.0,13.0,68,0.00,,,0.00,Wunderground v.1.15,2013-08-15 01:00:00,
2013-08-14 18:10:00,71.3,60.6,29.88,SSW,213,9.0,9.0,69,0.00,,,0.00,Wunderground v.1.15,2013-08-15 01:10:00,
2013-08-14 18:15:00,70.8,60.1,29.88,SSW,198,7.0,9.0,69,0.00,,,0.00,Wunderground v.1.15,2013-08-15 01:15:00,
2013-08-14 18:20:00,70.8,60.5,29.88,SSW,192,6.0,10.0,70,0.00,,,0.00,Wunderground v.1.15,2013-08-15 01:20:00,
2013-08-14 18:25:00,70.9,60.6,29.88,South,183,4.0,10.0,70,0.00,,,0.00,Wunderground v.1.15,2013-08-15 01:25:00,
2013-08-14 18:35:00,70.2,60.4,29.88,SW,217,6.0,7.0,71,0.00,,,0.00,Wunderground v.1.15,2013-08-15 01:35:00,
2013-08-14 18:40:00,70.0,60.6,29.88,SSE,150,5.0,9.0,72,0.00,,,0.00,Wunderground v.1.15,2013-08-15 01:40:00,
2013-08-14 18:45:00,69.8,60.4,29.88,South,186,5.0,9.0,72,0.00,,,0.00,Wunderground v.1.15,2013-08-15 01:45:00,
2013-08-14 18:55:00,69.2,60.2,29.88,SSW,194,6.0,7.0,73,0.00,,,0.00,Wunderground v.1.15,2013-08-15 01:55:00,
2013-08-14 19:05:00,68.4,60.2,29.88,SW,220,11.0,15.0,75,0.00,,,0.00,Wunderground v.1.15,2013-08-15 02:05:00,
2013-08-14 19:10:00,68.1,59.9,29.88,SSW,202,13.0,13.0,75,0.00,,,0.00,Wunderground v.1.15,2013-08-15 02:10:00,
2013-08-14 19:15:00,67.9,60.1,29.88,SSW,208,14.0,16.0,76,0.00,,,0.00,Wunderground v.1.15,2013-08-15 02:15:00,
2013-08-14 19:25:00,67.6,60.1,29.88,SW,218,15.0,19.0,77,0.00,,,0.00,Wunderground v.1.15,2013-08-15 02:25:00,
2013-08-14 19:30:00,67.2,59.7,29.87,SW,217,14.0,14.0,77,0.00,,,0.00,Wunderground v.1.15,2013-08-15 02:30:00,
2013-08-14 19:35:00,66.9,59.8,29.87,SW,223,13.0,14.0,78,0.00,,,0.00,Wunderground v.1.15,2013-08-15 02:35:00,
2013-08-14 19:40:00,66.6,59.9,29.88,SSW,213,12.0,12.0,79,0.00,,,0.00,Wunderground v.1.15,2013-08-15 02:40:00,
2013-08-14 19:50:00,66.2,59.8,29.87,SW,222,10.0,10.0,80,0.00,,,0.00,Wunderground v.1.15,2013-08-15 02:50:00,
2013-08-14 19:55:00,65.9,59.6,29.88,SW,219,9.0,11.0,80,0.00,,,0.00,Wunderground v.1.15,2013-08-15 02:55:00,
2013-08-14 20:00:00,65.6,59.6,29.88,SW,219,9.0,9.0,81,0.00,,,0.00,Wunderground v.1.15,2013-08-15 03:00:00,
2013-08-14 20:05:00,65.2,59.2,29.88,SW,218,9.0,9.0,81,0.00,,,0.00,Wunderground v.1.15,2013-08-15 03:05:00,
2013-08-14 20:10:00,64.9,59.3,29.88,SW,218,9.0,9.0,82,0.00,,,0.00,Wunderground v.1.15,2013-08-15 03:10:00,
2013-08-14 20:20:00,64.6,59.3,29.88,SW,224,6.0,6.0,83,0.00,,,0.00,Wunderground v.1.15,2013-08-15 03:20:00,
2013-08-14 20:25:00,64.6,59.3,29.88,SW,235,7.0,7.0,83,0.00,,,0.00,Wunderground v.1.15,2013-08-15 03:25:00,
2013-08-14 20:30:00,64.7,59.4,29.88,SW,219,7.0,10.0,83,0.00,,,0.00,Wunderground v.1.15,2013-08-15 03:30:00,
2013-08-14 20:40:00,64.7,59.8,29.88,SW,222,9.0,9.0,84,0.00,,,0.00,Wunderground v.1.15,2013-08-15 03:40:00,
2013-08-14 20:45:00,64.7,59.8,29.88,SW,219,8.0,10.0,84,0.00,,,0.00,Wunderground v.1.15,2013-08-15 03:45:00,
2013-08-14 20:50:00,64.7,59.8,29.88,SW,225,8.0,8.0,84,0.00,,,0.00,Wunderground v.1.15,2013-08-15 03:50:00,
2013-08-14 20:55:00,65.0,60.0,29.88,SW,223,7.0,8.0,84,0.00,,,0.00,Wunderground v.1.15,2013-08-15 03:55:00,
2013-08-14 21:00:00,64.9,59.6,29.89,SW,223,4.0,4.0,83,0.00,,,0.00,Wunderground v.1.15,2013-08-15 04:00:00,
2013-08-14 21:05:00,64.8,59.9,29.89,SW,233,3.0,4.0,84,0.00,,,0.00,Wunderground v.1.15,2013-08-15 04:05:00,
2013-08-14 21:10:00,64.6,60.0,29.89,SSE,161,3.0,3.0,85,0.00,,,0.00,Wunderground v.1.15,2013-08-15 04:10:00,
2013-08-14 21:15:00,64.4,59.8,29.89,South,177,2.0,3.0,85,0.00,,,0.00,Wunderground v.1.15,2013-08-15 04:15:00,
2013-08-14 21:20:00,64.1,59.8,29.89,South,178,2.0,2.0,86,0.00,,,0.00,Wunderground v.1.15,2013-08-15 04:20:00,
2013-08-14 21:25:00,63.8,59.5,29.89,South,178,2.0,3.0,86,0.00,,,0.00,Wunderground v.1.15,2013-08-15 04:25:00,
2013-08-14 21:30:00,63.7,59.8,29.90,South,178,1.0,1.0,87,0.00,,,0.00,Wunderground v.1.15,2013-08-15 04:30:00,
2013-08-14 21:40:00,63.3,59.0,29.90,South,178,0.0,0.0,86,0.00,,,0.00,Wunderground v.1.15,2013-08-15 04:40:00,
2013-08-14 21:45:00,63.2,59.3,29.90,South,178,0.0,0.0,87,0.00,,,0.00,Wunderground v.1.15,2013-08-15 04:45:00,
2013-08-14 21:50:00,63.3,59.7,29.90,South,178,1.0,1.0,88,0.00,,,0.00,Wunderground v.1.15,2013-08-15 04:50:00,
2013-08-14 21:55:00,63.3,59.4,29.90,South,178,0.0,1.0,87,0.00,,,0.00,Wunderground v.1.15,2013-08-15 04:55:00,
2013-08-14 22:05:00,63.2,59.6,29.91,South,178,0.0,0.0,88,0.00,,,0.00,Wunderground v.1.15,2013-08-15 05:05:00,
2013-08-14 22:10:00,63.1,59.5,29.91,South,178,0.0,0.0,88,0.00,,,0.00,Wunderground v.1.15,2013-08-15 05:10:00,
2013-08-14 22:20:00,62.8,59.2,29.91,South,178,0.0,0.0,88,0.00,,,0.00,Wunderground v.1.15,2013-08-15 05:20:00,
2013-08-14 22:25:00,62.5,58.9,29.91,South,178,0.0,0.0,88,0.00,,,0.00,Wunderground v.1.15,2013-08-15 05:25:00,
2013-08-14 22:30:00,62.3,59.0,29.91,South,178,0.0,0.0,89,0.00,,,0.00,Wunderground v.1.15,2013-08-15 05:30:00,
2013-08-14 22:35:00,62.0,58.7,29.91,South,178,0.0,0.0,89,0.00,,,0.00,Wunderground v.1.15,2013-08-15 05:35:00,
2013-08-14 22:40:00,61.8,58.5,29.91,South,178,0.0,0.0,89,0.00,,,0.00,Wunderground v.1.15,2013-08-15 05:40:00,
2013-08-14 22:50:00,60.9,57.3,29.91,South,178,0.0,0.0,88,0.00,,,0.00,Wunderground v.1.15,2013-08-15 05:50:00,
2013-08-14 22:55:00,60.5,57.2,29.92,South,178,0.0,0.0,89,0.00,,,0.00,Wunderground v.1.15,2013-08-15 05:55:00,
2013-08-14 23:00:00,60.3,57.4,29.92,South,178,0.0,0.0,90,0.00,,,0.00,Wunderground v.1.15,2013-08-15 06:00:00,
2013-08-14 23:05:00,60.2,57.9,29.92,South,178,0.0,3.0,92,0.00,,,0.00,Wunderground v.1.15,2013-08-15 06:05:00,
2013-08-14 23:10:00,60.2,57.9,29.92,South,178,0.0,3.0,92,0.00,,,0.00,Wunderground v.1.15,2013-08-15 06:10:00,
2013-08-14 23:20:00,59.4,56.8,29.92,South,178,0.0,3.0,91,0.00,,,0.00,Wunderground v.1.15,2013-08-15 06:20:00,
2013-08-14 23:25:00,59.3,57.0,29.92,South,178,0.0,3.0,92,0.00,,,0.00,Wunderground v.1.15,2013-08-15 06:25:00,
2013-08-14 23:30:00,59.3,57.3,29.92,South,178,0.0,3.0,93,0.00,,,0.00,Wunderground v.1.15,2013-08-15 06:30:00,
2013-08-14 23:35:00,59.0,56.7,29.92,South,178,0.0,3.0,92,0.00,,,0.00,Wunderground v.1.15,2013-08-15 06:35:00,
2013-08-14 23:40:00,58.9,56.9,29.92,South,178,0.0,3.0,93,0.00,,,0.00,Wunderground v.1.15,2013-08-15 06:40:00,
2013-08-14 23:50:00,58.8,56.8,29.92,South,178,0.0,3.0,93,0.00,,,0.00,Wunderground v.1.15,2013-08-15 06:50:00,
2013-08-14 23:55:00,58.5,56.5,29.91,South,178,0.0,3.0,93,0.00,,,0.00,Wunderground v.1.15,2013-08-15 06:55:00,